Regional Weather Roundup
Issued by NWS

Home | Current Version | Previous Version | Text Only | Print | Product List | Glossary Off
Versions: 1 2 3 4 5 6 7 8 9 10 11 12 13 14 15 16 17 18 19 20 21 22 23 24 25 26 27 28 29 30 31 32 33 34 35 36 37 38 39 40 41 42 43 44 45 46 47 48 49 50

000
ASUS43 KLMK 230610
RWRKY
KENTUCKY REGIONAL WEATHER ROUNDUP
NATIONAL WEATHER SERVICE LOUISVILLE KY
200 AM EDT TUE SEP 23 2014

NOTE "FAIR" INDICATES FEW OR NO CLOUDS BELOW 12,000 FEET
WITH NO SIGNIFICANT WEATHER AND/OR OBSTRUCTIONS TO VISIBILITY.

KYZ001>023-026-027-061>063-070>075-230700-
WESTERN AND SOUTH CENTRAL KENTUCKY

CITY           SKY/WX    TMP DP  RH WIND       PRES   REMARKS
PADUCAH        CLEAR     50  46  86 CALM      30.24S
HENDERSON      CLEAR     46  43  87 CALM      30.27S
OWENSBORO      CLEAR     55  50  83 CALM      30.27R
HOPKINSVILLE   CLEAR     52  46  82 N7        30.25R
BOWLING GREEN  CLEAR    N/A N/A N/A NE3       30.26R
GLASGOW        CLEAR     49  43  82 CALM      30.25S
$$

KYZ024-025-028>034-038-045-046-053-230700-
NORTH CENTRAL KENTUCKY

CITY           SKY/WX    TMP DP  RH WIND       PRES   REMARKS
LOUISVILLE/SDF CLEAR     53  47  79 N3        30.28R
LOUISVILLE/LOU CLEAR     51  47  86 CALM      30.29R
FORT KNOX      CLEAR     50  46  85 N5        30.26R
$$

KYZ035>037-039>044-047>052-055>060-089>105-230700-
NORTHEAST KENTUCKY

CITY           SKY/WX    TMP DP  RH WIND       PRES   REMARKS
LEXINGTON      CLEAR     50  43  77 NE7       30.28R
COVINGTON      CLEAR     53  43  68 CALM      30.28S
FRANKFORT      CLEAR     46  43  89 CALM      30.28R
$$

KYZ054-064>069-076>088-106>120-230700-
SOUTHEAST KENTUCKY

CITY           SKY/WX    TMP DP  RH WIND       PRES   REMARKS
JACKSON        CLEAR     53  43  68 CALM      30.27R
LONDON         CLEAR     49  45  86 CALM      30.26S
SOMERSET       CLEAR     46  46 100 N3        30.27R
MIDDLESBORO    CLEAR     47  47  99 CALM      30.26S
MONTICELLO     CLEAR     44  44 100 CALM      30.27R
$$



USA.gov is the U.S. government's official web portal to all federal, state and local government web resources and services.